Location: Taupo
(38.6830°S, 176.0830°E)
Time: 12:10:34
(UTC+13:00)

Cosmos 1869 - Pass Details

Date: 24 January 2019
Orbit: 537 x 547 km, 82.5° (Epoch: 15 February)

Event Time Altitude Azimuth Distance (km) Brightness Sun altitude
Rises 20:58:50 0° 13° (NNE) 2,702 6.4 -4.6°
Reaches altitude 10° 21:01:05 10° 21° (NNE) 1,817 5.5 -4.9°
Maximum altitude 21:04:46 37° 88° (E) 873 3.9 -5.6°
Drops below altitude 10° 21:08:30 10° 155° (SSE) 1,838 6.1 -6.2°
Sets 21:10:47 0° 163° (SSE) 2,738 7.1 -6.6°
